Torna al catalogo

SHIJIAN 6 02A

SJ-6 02A

AttivoScienzaSSO
NORAD 29505·PAYLOAD·🇨🇳 China

Lanciato Oct 23, 2006 da Taiyuan Satellite Launch Center

Loading…

Prossimi Passaggi (prossime 24 ore)

TLE

AggiornatoSource: Space-Track

Epoca: Sep 14, 2026, 21:46 UTC

1 29505U 06046A   26257.90748976  .00004522  00000-0  22707-3 0  9993
2 29505  97.6282 299.6673 0003198 158.6920 201.4447 15.17803158 85870

Traccia SHIJIAN 6 02A in tempo reale con AllMySat

Download on the App Store